Location: Gro�bocka
(50.8204°N, 11.9702°E)
Time: 14:13:47
(UTC+00:00)

Lacrosse 5 - Pass Details

Date: 29 October 2020
Orbit: 716 x 723 km, 57.0° (Epoch: 06 November)

Event Time Altitude Azimuth Distance (km) Brightness Sun altitude
Rises 18:12:27 0° 295° (WNW) 3,125 6.4 -22.7°
Reaches altitude 10° 18:14:53 10° 301° (WNW) 2,204 5.3 -23.1°
Maximum altitude 18:19:51 53° 18° (NNE) 885 2.2 -23.9°
Enters shadow 18:20:12 52° 34° (NNE) 896 2.1 -23.9°
